GW2242 Weather Reports


time (UTC)temp
C
wind
direction
speed
KPH
gust
KPH
rain 1hr
cm
rain 24hr
cm
rain mn
cm
humidity
%
barometer
mb
20260504194924 23 220 6.4 9.7 0.00 0.00 0.00 33 1009.5
20260504194420 23 278 6.4 9.7 0.00 0.00 0.00 33 1009.5
20260504193916 23 284 4.8 4.8 0.00 0.00 0.00 33 1009.3
20260504193414 23 258 4.8 4.8 0.00 0.00 0.00 33 1009.4
20260504192913 23 289 3.2 3.2 0.00 0.00 0.00 32 1009.4
20260504192409 22 145 6.4 11.3 0.00 0.00 0.00 32 1009.5
20260504191909 23 286 6.4 8.0 0.00 0.00 0.00 33 1009.4
20260504191406 22 229 3.2 4.8 0.00 0.00 0.00 34 1009.6
20260504190901 22 278 6.4 8.0 0.00 0.00 0.00 32 1009.9
20260504190357 22 265 4.8 8.0 0.00 0.00 0.00 35 1010.1
20260504185854 22 82 8.0 11.3 0.00 0.00 0.00 34 1009.9
20260504185351 22 263 6.4 8.0 0.00 0.00 0.00 33 1010.0
20260504184847 22 148 1.6 1.6 0.00 0.00 0.00 33 1009.7
20260504184343 23 203 0.0 1.6 0.00 0.00 0.00 33 1010.4
20260504183839 22 231 4.8 8.0 0.00 0.00 0.00 36 1010.2
20260504183337 22 271 6.4 9.7 0.00 0.00 0.00 34 1010.4
20260504182834 22 263 1.6 4.8 0.00 0.00 0.00 36 1010.3
20260504182331 22 179 3.2 3.2 0.00 0.00 0.00 36 1010.5
20260504181828 22 46 6.4 11.3 0.00 0.00 0.00 33 1010.4
20260504181325 22 259 1.6 1.6 0.00 0.00 0.00 35 1010.5
20260504180824 22 279 12.9 20.9 0.00 0.00 0.00 33 1010.7
20260504180322 22 249 3.2 4.8 0.00 0.00 0.00 35 1010.7
20260504175820 22 289 3.2 4.8 0.00 0.00 0.00 36 1010.8
20260504175317 22 276 1.6 3.2 0.00 0.00 0.00 37 1010.9
20260504174815 22 293 6.4 9.7 0.00 0.00 0.00 35 1010.8
20260504174312 22 56 1.6 3.2 0.00 0.00 0.00 37 1011.3
20260504173809 21 228 3.2 4.8 0.00 0.00 0.00 37 1011.2
20260504173305 21 268 1.6 3.2 0.00 0.00 0.00 37 1010.9
20260504172803 21 236 4.8 8.0 0.00 0.00 0.00 37 1010.9
20260504172259 21 258 3.2 4.8 0.00 0.00 0.00 35 1011.0
20260504171755 21 247 4.8 8.0 0.00 0.00 0.00 38 1011.3
20260504171252 21 253 8.0 9.7 0.00 0.00 0.00 35 1011.3
20260504170749 21 252 3.2 3.2 0.00 0.00 0.00 36 1011.3
20260504170246 21 131 4.8 4.8 0.00 0.00 0.00 37 1011.2
20260504160205 20 216 3.2 4.8 0.00 0.00 0.00 39 1012.3
20260504151133 18 256 1.6 1.6 0.00 0.00 0.00 40 1012.8
20260504150630 18 262 6.4 9.7 0.00 0.00 0.00 39 1012.7
20260504150127 18 306 4.8 8.0 0.00 0.00 0.00 42 1012.9
20260504141055 17 259 6.4 8.0 0.00 0.00 0.00 46 1012.9
20260504140552 17 158 1.6 3.2 0.00 0.00 0.00 47 1012.9
20260504130516 15 258 4.8 8.0 0.00 0.00 0.00 55 1013.9
20260504110403 9 187 3.2 4.8 0.00 0.00 0.00 71 1014.1
20260504100321 7 203 0.0 1.6 0.00 0.00 0.00 70 1014.0
20260504081714 7 217 0.0 0.0 0.00 0.00 0.00 59 1013.5
20260504081211 7 217 0.0 0.0 0.00 0.00 0.00 58 1013.8
20260504080707 8 217 0.0 0.0 0.00 0.00 0.00 57 1014.0
20260504080204 8 228 3.2 3.2 0.00 0.00 0.00 56 1013.7
20260504070131 9 215 3.2 3.2 0.00 0.00 0.00 52 1013.7
20260504050520 9 172 0.0 0.0 0.00 0.00 0.00 53 1013.2
20260504050017 9 215 0.0 1.6 0.00 0.00 0.00 54 1013.4
20260504045514 8 250 3.2 3.2 0.00 0.00 0.00 53 1013.0
20260504045009 8 221 0.0 0.0 0.00 0.00 0.00 53 1013.4
20260504044507 9 207 0.0 0.0 0.00 0.00 0.00 54 1013.2
20260504044004 8 221 0.0 0.0 0.00 0.00 0.00 53 1013.2
20260504043500 8 200 0.0 0.0 0.00 0.00 0.00 55 1013.3
20260504042958 8 254 3.2 3.2 0.00 0.00 0.00 54 1013.2
20260504042454 8 220 0.0 0.0 0.00 0.00 0.00 54 1013.1
20260504041951 9 223 0.0 0.0 0.00 0.00 0.00 53 1013.2
20260504041448 9 218 0.0 0.0 0.00 0.00 0.00 53 1012.8
20260504040943 9 212 0.0 0.0 0.00 0.00 0.00 52 1012.9
20260504040441 9 219 0.0 0.0 0.00 0.00 0.00 52 1012.8
20260504035937 9 217 0.0 0.0 0.00 0.00 0.00 52 1013.1
20260504035435 9 201 0.0 0.0 0.00 0.00 0.00 51 1013.0
20260504034931 9 197 0.0 0.0 0.00 0.00 0.00 51 1012.7
20260504034429 9 206 0.0 0.0 0.00 0.00 0.00 51 1012.8
20260504033926 9 213 0.0 1.6 0.00 0.00 0.00 51 1012.7
20260504033423 9 218 0.0 0.0 0.00 0.00 0.00 51 1012.9
20260504032920 10 212 0.0 0.0 0.00 0.00 0.00 52 1012.7
20260504032417 10 211 0.0 0.0 0.00 0.00 0.00 49 1012.8
20260504031914 10 214 0.0 0.0 0.00 0.00 0.00 49 1012.8
20260504031411 10 206 0.0 0.0 0.00 0.00 0.00 49 1012.8
20260504030908 10 210 0.0 0.0 0.00 0.00 0.00 48 1012.6
20260504030405 10 213 0.0 0.0 0.00 0.00 0.00 48 1012.6
20260504025900 10 212 0.0 0.0 0.00 0.00 0.00 47 1012.5
20260504025358 10 204 0.0 0.0 0.00 0.00 0.00 48 1012.7
20260504024854 10 225 0.0 1.6 0.00 0.00 0.00 47 1012.6
20260504024351 10 199 0.0 1.6 0.00 0.00 0.00 47 1012.6
20260504023848 10 279 3.2 4.8 0.00 0.00 0.00 47 1012.6
20260504023345 10 190 0.0 0.0 0.00 0.00 0.00 47 1012.6
20260504022840 10 202 0.0 0.0 0.00 0.00 0.00 46 1012.8
20260504022337 11 245 3.2 3.2 0.00 0.00 0.00 45 1012.6
20260504021834 10 269 1.6 3.2 0.00 0.00 0.00 46 1012.7
20260504021331 10 210 0.0 0.0 0.00 0.00 0.00 46 1012.6
20260504020828 10 258 3.2 3.2 0.00 0.00 0.00 46 1012.5
20260504020325 10 195 0.0 0.0 0.00 0.00 0.00 46 1012.5
20260504015821 10 209 0.0 0.0 0.00 0.00 0.00 48 1012.6
20260504015317 10 212 0.0 0.0 0.00 0.00 0.00 47 1012.7
20260504014814 10 205 0.0 0.0 0.00 0.00 0.00 47 1012.5
20260504014309 10 206 0.0 0.0 0.00 0.00 0.00 46 1012.4
20260504013807 11 205 0.0 0.0 0.00 0.00 0.00 48 1012.3
20260504013305 11 201 0.0 0.0 0.00 0.00 0.00 46 1012.3
20260504012801 11 218 0.0 0.0 0.00 0.00 0.00 44 1012.3
20260504012259 11 214 0.0 0.0 0.00 0.00 0.00 47 1012.3
20260504011756 11 213 0.0 0.0 0.00 0.00 0.00 45 1012.2
20260504011253 11 212 0.0 0.0 0.00 0.00 0.00 47 1012.2
20260504010749 10 211 0.0 0.0 0.00 0.00 0.00 45 1012.0
20260504010244 11 210 0.0 0.0 0.00 0.00 0.00 46 1012.1
20260504005741 11 208 0.0 0.0 0.00 0.00 0.00 46 1011.9
20260504005238 11 208 0.0 0.0 0.00 0.00 0.00 47 1012.2
20260504004736 11 208 0.0 0.0 0.00 0.00 0.00 45 1012.0
20260504004233 11 208 0.0 0.0 0.00 0.00 0.00 46 1011.7
20260504003729 11 208 0.0 0.0 0.00 0.00 0.00 43 1011.9
20260504003227 12 208 0.0 0.0 0.00 0.00 0.00 41 1011.7
20260504002723 12 208 0.0 0.0 0.00 0.00 0.00 40 1011.7
20260504002220 12 208 0.0 0.0 0.00 0.00 0.00 39 1011.7
20260504001718 13 225 0.0 0.0 0.00 0.00 0.00 37 1011.5
20260504001215 13 191 0.0 1.6 0.00 0.00 0.00 36 1011.2
20260504000711 13 215 0.0 0.0 0.00 0.00 0.00 36 1011.3
20260504000208 13 199 0.0 0.0 0.00 0.00 0.00 36 1011.2
20260503235707 13 272 4.8 8.0 0.00 0.00 0.00 34 1011.2
20260503235203 13 197 1.6 1.6 0.00 0.00 0.00 35 1011.1
20260503234701 13 249 3.2 3.2 0.00 0.00 0.00 35 1011.1
20260503234159 14 164 0.0 0.0 0.00 0.00 0.00 34 1011.2
20260503233655 14 79 1.6 3.2 0.00 0.00 0.00 34 1011.1
20260503233151 15 286 6.4 8.0 0.00 0.00 0.00 32 1011.2
20260503232643 15 212 3.2 3.2 0.00 0.00 0.00 32 1011.0
20260503232140 15 205 1.6 3.2 0.00 0.00 0.00 32 1010.9
20260503231638 15 186 0.0 1.6 0.00 0.00 0.00 32 1010.6
20260503231134 15 224 3.2 4.8 0.00 0.00 0.00 31 1010.9
20260503230631 15 232 4.8 9.7 0.00 0.00 0.00 31 1011.0
20260503230128 15 216 1.6 1.6 0.00 0.00 0.00 33 1011.0
20260503225626 15 250 3.2 4.8 0.00 0.00 0.00 32 1010.9
20260503225125 15 248 1.6 1.6 0.00 0.00 0.00 31 1010.7
20260503224623 15 235 3.2 3.2 0.00 0.00 0.00 32 1010.8
20260503224121 15 239 4.8 8.0 0.00 0.00 0.00 30 1010.6
20260503223619 15 225 3.2 3.2 0.00 0.00 0.00 30 1010.8
20260503223114 16 206 6.4 8.0 0.00 0.00 0.00 31 1011.0
20260503222612 15 64 1.6 3.2 0.00 0.00 0.00 31 1010.8
20260503222109 15 355 4.8 8.0 0.00 0.00 0.00 30 1010.5
20260503221608 15 11 6.4 8.0 0.00 0.00 0.00 30 1010.7
20260503221105 15 244 4.8 8.0 0.00 0.00 0.00 30 1010.7
20260503220601 16 276 4.8 4.8 0.00 0.00 0.00 31 1010.6
20260503220058 16 188 4.8 8.0 0.00 0.00 0.00 30 1010.6
20260503215555 16 252 1.6 3.2 0.00 0.00 0.00 30 1010.7
20260503215052 16 214 3.2 3.2 0.00 0.00 0.00 30 1010.7
20260503214550 16 203 3.2 3.2 0.00 0.00 0.00 31 1010.7
20260503214046 16 251 4.8 4.8 0.00 0.00 0.00 31 1010.7
20260503213545 15 2 9.7 14.5 0.00 0.00 0.00 30 1010.5
20260503213041 16 306 4.8 4.8 0.00 0.00 0.00 30 1010.7
20260503212539 16 32 1.6 3.2 0.00 0.00 0.00 32 1010.5
20260503212036 16 270 4.8 9.7 0.00 0.00 0.00 31 1010.5
20260503211533 15 212 3.2 4.8 0.00 0.00 0.00 32 1010.7
20260503211028 16 240 4.8 8.0 0.00 0.00 0.00 30 1010.7
20260503210526 15 54 4.8 4.8 0.00 0.00 0.00 30 1010.6
20260503210021 15 244 9.7 12.9 0.00 0.00 0.00 30 1010.6
20260503205518 15 240 4.8 8.0 0.00 0.00 0.00 33 1010.7
20260503205015 15 286 12.9 17.7 0.00 0.00 0.00 29 1010.7
20260503204512 15 167 6.4 9.7 0.00 0.00 0.00 32 1010.6
20260503204009 15 295 9.7 12.9 0.00 0.00 0.00 29 1010.4
20260503203506 14 276 4.8 11.3 0.00 0.00 0.00 31 1010.4
20260503203003 15 15 4.8 9.7 0.00 0.00 0.00 31 1010.7
20260503202501 15 259 6.4 14.5 0.00 0.00 0.00 30 1010.5
20260503201959 15 19 8.0 12.9 0.00 0.00 0.00 30 1010.7
20260503201456 15 231 4.8 8.0 0.00 0.00 0.00 31 1010.7
20260503200953 16 215 3.2 4.8 0.00 0.00 0.00 31 1010.7
20260503200449 15 272 8.0 9.7 0.00 0.00 0.00 30 1010.8
20260503195946 15 247 8.0 12.9 0.00 0.00 0.00 31 1010.7
20260503195444 14 206 4.8 8.0 0.00 0.00 0.00 32 1010.8